Time,TemperatureF,DewpointF,PressureIn,WindDirection,WindDirectionDegrees,WindSpeedMPH,WindSpeedGustMPH,Humidity,HourlyPrecipIn,Conditions,Clouds,dailyrainin,SolarRadiationWatts/m^2,SoftwareType,DateUTC
2013-09-12 00:01:00,47.0,45.0,-100.00,NNE,33,2.0,3.0,93,0.00,,,0.12,0.000000,,2013-09-12 06:01:00,
2013-09-12 00:12:00,47.0,45.0,-100.00,NNE,33,2.0,3.0,93,0.00,,,0.12,0.000000,,2013-09-12 06:12:00,
2013-09-12 00:21:00,47.0,45.0,-100.00,NNE,33,2.0,3.0,93,0.00,,,0.12,0.000000,,2013-09-12 06:21:00,
2013-09-12 00:52:00,47.0,45.0,-100.00,NNE,23,2.0,3.0,94,0.00,,,0.12,0.000000,,2013-09-12 06:52:00,
2013-09-12 01:02:00,47.0,45.0,-100.00,NNE,23,2.0,3.0,94,0.00,,,0.12,0.000000,,2013-09-12 07:02:00,
2013-09-12 01:12:00,47.0,45.0,-100.00,NNE,23,2.0,3.0,94,0.00,,,0.12,0.000000,,2013-09-12 07:12:00,
2013-09-12 01:21:00,47.0,45.0,-100.00,NNE,23,2.0,3.0,94,0.00,,,0.12,0.000000,,2013-09-12 07:21:00,
2013-09-12 01:52:00,46.0,44.0,-100.00,NE,44,2.0,4.0,94,0.00,,,0.12,0.000000,,2013-09-12 07:52:00,
2013-09-12 02:02:00,46.0,44.0,-100.00,NE,44,2.0,4.0,94,0.00,,,0.12,0.000000,,2013-09-12 08:02:00,
2013-09-12 02:11:00,46.0,44.0,-100.00,NE,44,2.0,4.0,94,0.00,,,0.12,0.000000,,2013-09-12 08:11:00,
2013-09-12 02:22:00,46.0,44.0,-100.00,NE,44,2.0,4.0,94,0.00,,,0.12,0.000000,,2013-09-12 08:22:00,
2013-09-12 02:52:00,46.0,44.0,-100.00,ESE,109,3.0,5.0,93,0.00,,,0.03,0.000000,,2013-09-12 08:52:00,
2013-09-12 03:02:00,46.0,44.0,-100.00,ESE,109,3.0,5.0,93,0.00,,,0.03,0.000000,,2013-09-12 09:02:00,
2013-09-12 03:12:00,46.0,44.0,-100.00,ESE,109,3.0,5.0,93,0.00,,,0.03,0.000000,,2013-09-12 09:12:00,
2013-09-12 03:21:00,46.0,44.0,-100.00,ESE,109,3.0,5.0,93,0.00,,,0.03,0.000000,,2013-09-12 09:21:00,
2013-09-12 03:53:00,49.0,44.0,-100.00,SE,129,6.0,8.0,84,0.00,,,0.03,0.000000,,2013-09-12 09:53:00,
2013-09-12 04:03:00,49.0,44.0,-100.00,SE,129,6.0,8.0,84,0.00,,,0.03,0.000000,,2013-09-12 10:03:00,
2013-09-12 04:12:00,49.0,44.0,-100.00,SE,129,6.0,8.0,84,0.00,,,0.03,0.000000,,2013-09-12 10:12:00,
2013-09-12 04:23:00,49.0,44.0,-100.00,SE,129,6.0,8.0,84,0.00,,,0.03,0.000000,,2013-09-12 10:23:00,
2013-09-12 04:53:00,49.0,46.0,-100.00,WNW,285,2.0,10.0,88,0.00,,,0.03,0.000000,,2013-09-12 10:53:00,
2013-09-12 05:03:00,49.0,46.0,-100.00,WNW,285,2.0,10.0,88,0.00,,,0.03,0.000000,,2013-09-12 11:03:00,
2013-09-12 05:11:00,49.0,46.0,-100.00,WNW,285,2.0,10.0,88,0.00,,,0.03,0.000000,,2013-09-12 11:11:00,
2013-09-12 05:21:00,49.0,46.0,-100.00,WNW,285,2.0,10.0,88,0.00,,,0.03,0.000000,,2013-09-12 11:21:00,
2013-09-12 05:52:00,46.0,44.0,-100.00,NE,53,2.0,4.0,92,0.00,,,0.03,0.000000,,2013-09-12 11:52:00,
2013-09-12 06:01:00,46.0,44.0,-100.00,NE,53,2.0,4.0,92,0.00,,,0.03,0.000000,,2013-09-12 12:01:00,
2013-09-12 06:11:00,46.0,44.0,-100.00,NE,53,2.0,4.0,92,0.00,,,0.03,0.000000,,2013-09-12 12:11:00,
2013-09-12 06:21:00,46.0,44.0,-100.00,NE,53,2.0,4.0,92,0.00,,,0.03,0.000000,,2013-09-12 12:21:00,
2013-09-12 06:52:00,45.0,44.0,-100.00,NNE,18,1.0,3.0,95,0.00,,,0.03,0.000000,,2013-09-12 12:52:00,
2013-09-12 07:02:00,45.0,44.0,-100.00,NNE,18,1.0,3.0,95,0.00,,,0.03,0.000000,,2013-09-12 13:02:00,
2013-09-12 07:11:00,45.0,44.0,-100.00,NNE,18,1.0,3.0,95,0.00,,,0.03,0.000000,,2013-09-12 13:11:00,
2013-09-12 07:22:00,45.0,44.0,-100.00,NNE,18,1.0,3.0,95,0.00,,,0.03,0.000000,,2013-09-12 13:22:00,
2013-09-12 07:52:00,47.0,43.0,-100.00,ENE,76,0.0,2.0,87,0.00,,,0.03,1.000000,,2013-09-12 13:52:00,
2013-09-12 08:02:00,47.0,43.0,-100.00,ENE,76,0.0,2.0,87,0.00,,,0.03,1.000000,,2013-09-12 14:02:00,
2013-09-12 08:11:00,47.0,43.0,-100.00,ENE,76,0.0,2.0,87,0.00,,,0.03,1.000000,,2013-09-12 14:11:00,
2013-09-12 08:22:00,47.0,43.0,-100.00,ENE,76,0.0,2.0,87,0.00,,,0.03,1.000000,,2013-09-12 14:22:00,
2013-09-12 08:52:00,50.0,45.0,-100.00,SE,143,3.0,4.0,82,0.00,,,0.03,54.000000,,2013-09-12 14:52:00,
2013-09-12 09:02:00,50.0,45.0,-100.00,SE,143,3.0,4.0,82,0.00,,,0.03,54.000000,,2013-09-12 15:02:00,
2013-09-12 09:11:00,50.0,45.0,-100.00,SE,143,3.0,4.0,82,0.00,,,0.03,54.000000,,2013-09-12 15:11:00,
2013-09-12 09:22:00,50.0,45.0,-100.00,SE,143,3.0,4.0,82,0.00,,,0.03,54.000000,,2013-09-12 15:22:00,
2013-09-12 10:13:00,57.0,48.0,-100.00,SE,130,7.0,8.0,73,0.00,,,0.03,190.000000,,2013-09-12 16:13:00,
2013-09-12 10:23:00,57.0,48.0,-100.00,SE,130,7.0,8.0,73,0.00,,,0.03,190.000000,,2013-09-12 16:23:00,
2013-09-12 10:53:00,54.0,49.0,-100.00,South,178,10.0,16.0,84,0.00,,,0.01,144.000000,,2013-09-12 16:53:00,
2013-09-12 11:03:00,54.0,49.0,-100.00,South,178,10.0,16.0,84,0.00,,,0.01,144.000000,,2013-09-12 17:03:00,
2013-09-12 11:12:00,54.0,49.0,-100.00,South,178,10.0,16.0,84,0.00,,,0.01,144.000000,,2013-09-12 17:12:00,
2013-09-12 11:23:00,54.0,49.0,-100.00,South,178,10.0,16.0,84,0.00,,,0.01,144.000000,,2013-09-12 17:23:00,
2013-09-12 12:12:00,49.0,46.0,-100.00,East,90,7.0,18.0,90,0.16,,,0.16,55.000000,,2013-09-12 18:12:00,
2013-09-12 12:22:00,49.0,46.0,-100.00,East,90,7.0,18.0,90,0.16,,,0.16,55.000000,,2013-09-12 18:22:00,
2013-09-12 12:52:00,53.0,49.0,-100.00,ENE,75,7.0,16.0,85,0.00,,,0.16,281.000000,,2013-09-12 18:52:00,
2013-09-12 13:02:00,53.0,49.0,-100.00,ENE,75,7.0,16.0,85,0.00,,,0.16,281.000000,,2013-09-12 19:02:00,
2013-09-12 13:12:00,53.0,49.0,-100.00,ENE,75,7.0,16.0,85,0.00,,,0.16,281.000000,,2013-09-12 19:12:00,
2013-09-12 13:22:00,53.0,49.0,-100.00,ENE,75,7.0,16.0,85,0.00,,,0.16,281.000000,,2013-09-12 19:22:00,
2013-09-12 13:52:00,61.0,50.0,-100.00,ENE,76,6.0,12.0,67,0.00,,,0.16,731.000000,,2013-09-12 19:52:00,
2013-09-12 14:02:00,61.0,50.0,-100.00,ENE,76,6.0,12.0,67,0.00,,,0.16,731.000000,,2013-09-12 20:02:00,
2013-09-12 14:11:00,61.0,50.0,-100.00,ENE,76,6.0,12.0,67,0.00,,,0.16,731.000000,,2013-09-12 20:11:00,
2013-09-12 14:22:00,61.0,50.0,-100.00,ENE,76,6.0,12.0,67,0.00,,,0.16,731.000000,,2013-09-12 20:22:00,
2013-09-12 14:52:00,66.0,51.0,-100.00,SE,137,5.0,17.0,59,0.00,,,0.16,978.000000,,2013-09-12 20:52:00,
2013-09-12 15:02:00,66.0,51.0,-100.00,SE,137,5.0,17.0,59,0.00,,,0.16,978.000000,,2013-09-12 21:02:00,
2013-09-12 15:11:00,66.0,51.0,-100.00,SE,137,5.0,17.0,59,0.00,,,0.16,978.000000,,2013-09-12 21:11:00,
2013-09-12 15:21:00,66.0,51.0,-100.00,SE,137,5.0,17.0,59,0.00,,,0.16,978.000000,,2013-09-12 21:21:00,
2013-09-12 15:24:00,60.0,52.0,-100.00,SSW,210,5.0,14.0,76,0.00,,,0.16,406.000000,,2013-09-12 21:24:00,
2013-09-12 15:54:00,60.0,52.0,-100.00,SSW,210,5.0,14.0,76,0.00,,,0.16,406.000000,,2013-09-12 21:54:00,
2013-09-12 16:04:00,60.0,52.0,-100.00,SSW,210,5.0,14.0,76,0.00,,,0.16,406.000000,,2013-09-12 22:04:00,
2013-09-12 16:13:00,60.0,52.0,-100.00,SSW,210,5.0,14.0,76,0.00,,,0.16,406.000000,,2013-09-12 22:13:00,
2013-09-12 16:54:00,63.0,52.0,-100.00,SSW,213,3.0,10.0,68,0.01,,,0.17,299.000000,,2013-09-12 22:54:00,
2013-09-12 17:04:00,63.0,52.0,-100.00,SSW,213,3.0,10.0,68,0.01,,,0.17,299.000000,,2013-09-12 23:04:00,
2013-09-12 17:12:00,63.0,52.0,-100.00,SSW,213,3.0,10.0,68,0.01,,,0.17,299.000000,,2013-09-12 23:12:00,
2013-09-12 17:23:00,63.0,52.0,-100.00,SSW,213,3.0,10.0,68,0.01,,,0.17,299.000000,,2013-09-12 23:23:00,
2013-09-12 17:53:00,66.0,51.0,-100.00,SSE,151,5.0,8.0,58,0.00,,,0.17,513.000000,,2013-09-12 23:53:00,
2013-09-12 18:01:00,66.0,51.0,-100.00,SSE,151,5.0,8.0,58,0.00,,,0.17,513.000000,,2013-09-13 00:01:00,
2013-09-12 18:11:00,66.0,51.0,-100.00,SSE,151,5.0,8.0,58,0.00,,,0.17,513.000000,,2013-09-13 00:11:00,
2013-09-12 18:22:00,66.0,51.0,-100.00,SSE,151,5.0,8.0,58,0.00,,,0.17,513.000000,,2013-09-13 00:22:00,
2013-09-12 18:52:00,63.0,49.0,-100.00,South,178,2.0,7.0,61,0.00,,,0.17,284.000000,,2013-09-13 00:52:00,
2013-09-12 19:01:00,63.0,49.0,-100.00,South,178,2.0,7.0,61,0.00,,,0.17,284.000000,,2013-09-13 01:01:00,
2013-09-12 19:11:00,63.0,49.0,-100.00,South,178,2.0,7.0,61,0.00,,,0.17,284.000000,,2013-09-13 01:11:00,
2013-09-12 19:21:00,63.0,49.0,-100.00,South,178,2.0,7.0,61,0.00,,,0.17,284.000000,,2013-09-13 01:21:00,
2013-09-12 19:53:00,61.0,52.0,-100.00,SSE,166,2.0,5.0,73,0.00,,,0.17,85.000000,,2013-09-13 01:53:00,
2013-09-12 20:02:00,61.0,52.0,-100.00,SSE,166,2.0,5.0,73,0.00,,,0.17,85.000000,,2013-09-13 02:02:00,
2013-09-12 20:11:00,61.0,52.0,-100.00,SSE,166,2.0,5.0,73,0.00,,,0.17,85.000000,,2013-09-13 02:11:00,
2013-09-12 20:22:00,61.0,52.0,-100.00,SSE,166,2.0,5.0,73,0.00,,,0.17,85.000000,,2013-09-13 02:22:00,
2013-09-12 20:53:00,58.0,47.0,-100.00,WSW,258,5.0,13.0,66,0.00,,,0.17,7.000000,,2013-09-13 02:53:00,
2013-09-12 21:02:00,58.0,47.0,-100.00,WSW,258,5.0,13.0,66,0.00,,,0.17,7.000000,,2013-09-13 03:02:00,
2013-09-12 21:11:00,58.0,47.0,-100.00,WSW,258,5.0,13.0,66,0.00,,,0.17,7.000000,,2013-09-13 03:11:00,
2013-09-12 21:22:00,58.0,47.0,-100.00,WSW,258,5.0,13.0,66,0.00,,,0.17,7.000000,,2013-09-13 03:22:00,
2013-09-12 21:24:00,53.0,48.0,-100.00,East,95,4.0,11.0,84,0.03,,,0.20,0.000000,,2013-09-13 03:24:00,
2013-09-12 21:55:00,53.0,48.0,-100.00,East,95,4.0,11.0,84,0.03,,,0.20,0.000000,,2013-09-13 03:55:00,
2013-09-12 22:04:00,53.0,48.0,-100.00,East,95,4.0,11.0,84,0.03,,,0.20,0.000000,,2013-09-13 04:04:00,
2013-09-12 22:14:00,53.0,48.0,-100.00,East,95,4.0,11.0,84,0.03,,,0.20,0.000000,,2013-09-13 04:14:00,
2013-09-12 22:54:00,52.0,47.0,-100.00,East,96,4.0,6.0,84,0.00,,,0.20,0.000000,,2013-09-13 04:54:00,
2013-09-12 23:03:00,52.0,47.0,-100.00,East,96,4.0,6.0,84,0.00,,,0.20,0.000000,,2013-09-13 05:03:00,
2013-09-12 23:13:00,52.0,47.0,-100.00,East,96,4.0,6.0,84,0.00,,,0.20,0.000000,,2013-09-13 05:13:00,
2013-09-12 23:22:00,52.0,47.0,-100.00,East,96,4.0,6.0,84,0.00,,,0.20,0.000000,,2013-09-13 05:22:00,
2013-09-12 23:53:00,52.0,47.0,-100.00,NE,50,2.0,9.0,84,0.00,,,0.20,0.000000,,2013-09-13 05:53:00,